Voltar ao catálogo

STARLINK-34184

AtivoComunicaçõesVLEO
NORAD 64024·PAYLOAD·🇺🇸 United States

Lançado May 16, 2025 de Vandenberg Space Force Base

Loading…

Próximas Passagens (próximas 24 horas)

TLE

AtualizadoSource: CelesTrak SupGP

Época: Sep 14, 2026, 21:10 UTC

1 64024C 25102C   26257.88243056 -.00027365  00000+0 -94994-3 0  2573
2 64024  70.0013 355.5820 0003570 275.2600 236.4849 15.29659946    17

Acompanhe STARLINK-34184 em tempo real com AllMySat

Download on the App Store